Edinburg, TX

9:09 PM CST on January 18, 2017 (GMT -0600)
Edinburg

Weather History for KEBG - February, 2014

Change the Weather History Date:

Sunday, February 23, 2014

  Actual Average (KMFE) Record (KMFE)
Temperature  
Mean Temperature 74 °F -  
Max Temperature 82 °F 74 °F 98 °F (1996)
Min Temperature 66 °F 54 °F 33 °F (1964)
Cooling Degree Days 9    
Growing Degree Days 24 (Base 50)    
Moisture  
Dew Point 66 °F    
Average Humidity 77    
Maximum Humidity 94    
Minimum Humidity 51    
Precipitation  
Precipitation 0.00 in - - ()
Sea Level Pressure  
Sea Level Pressure 29.91 in    
Wind  
Wind Speed 3 mph (SE)    
Max Wind Speed 10 mph    
Max Gust Speed -    
Visibility 6 miles    
Events Fog    
Averages and records for this station are not official NWS values.
T = Trace of Precipitation, MM = Missing Value Source: NWS Daily Summary

Daily Weather History Graph

Daily Weather History Graph

Search for Another Location

Airport or City:

Trip Planner

Search our weather history database for the weather conditions in past years. The results will help you decide how hot, cold, wet, or windy it might be!

Date:

Astronomy

Feb. 23, 2014 Rise Set
Actual Time 7:01 AM CST 6:30 PM CST
Civil Twilight 6:38 AM CST 6:53 PM CST
Nautical Twilight 6:11 AM CST 7:20 PM CST
Astronomical Twilight 5:44 AM CST 7:47 PM CST
Moon 1:45 AM CST (2/23) 12:50 PM CST (2/23)
Length of Visible Light 12h 15m
Length of Day
11h 28m
Last Quarter, 38% of the Moon is Illuminated
Feb 23
Last Quarter
Mar 1
New
Mar 8
First Quarter
Mar 16
Full
Mar 23
Last Quarter

Hourly Weather History & Observations

Time (CST) Temp. Heat Index Dew Point Humidity Pressure Visibility Wind Dir Wind Speed Gust Speed Precip Events Conditions
12:40 AM 69.8 °F - 59.7 °F 70% 29.89 in 5.0 mi SE 3.5 mph - N/A   Mostly Cloudy
12:55 AM 69.3 °F - 66.0 °F 89% 29.89 in 5.0 mi Calm Calm - N/A   Mostly Cloudy
2:20 AM - - - N/A% - - East 3.5 mph - N/A   Unknown
2:55 AM - - - N/A% 29.87 in 5.0 mi East 4.6 mph - N/A   Overcast
3:30 AM 69.8 °F - 59.7 °F 70% 29.86 in 4.0 mi East 4.6 mph - N/A   Overcast
3:50 AM - - - N/A% 29.86 in 4.0 mi East 3.5 mph - N/A   Overcast
4:35 AM 69.8 °F - 66.2 °F 88% 29.87 in 3.0 mi Calm Calm - N/A   Overcast
4:55 AM 71.6 °F - 68.0 °F 88% 29.87 in 3.0 mi Calm Calm - N/A   Overcast
5:15 AM 69.8 °F - 66.2 °F 88% 29.87 in 2.5 mi Calm Calm - N/A   Overcast
5:35 AM 69.8 °F - 66.2 °F 88% 29.87 in 1.2 mi Calm Calm - N/A   Overcast
5:55 AM 69.8 °F - 66.2 °F 88% 29.88 in 0.2 mi Calm Calm - N/A Fog Fog
6:15 AM 68.0 °F - 64.4 °F 88% 29.88 in 0.2 mi Calm Calm - N/A Fog Fog
6:20 AM 68.0 °F - 65.3 °F 91% 29.88 in 0.2 mi Calm Calm - N/A Fog Fog
6:35 AM 66.9 °F - 57.9 °F 73% 29.89 in 0.2 mi Calm Calm - N/A Fog Fog
7:37 AM 66.2 °F - 64.4 °F 94% 29.92 in 0.5 mi Calm Calm - N/A Fog Fog
8:10 AM 69.6 °F - 60.3 °F 72% 29.93 in 2.0 mi Calm Calm - N/A   Overcast
8:30 AM - - - N/A% 29.94 in 3.0 mi Calm Calm - N/A   Overcast
9:35 AM - - - N/A% 29.96 in 7.0 mi South 9.2 mph - N/A   Overcast
12:17 PM 78.8 °F - 66.2 °F 65% 29.95 in 10.0 mi SSW 9.2 mph - N/A   Overcast
12:55 PM 80.6 °F 82.7 °F 66.2 °F 61% 29.94 in 10.0 mi South 6.9 mph - N/A   Overcast
1:15 PM 80.6 °F 82.7 °F 66.2 °F 61% 29.93 in 10.0 mi SSE 10.4 mph - N/A   Overcast
1:30 PM - - - N/A% 29.93 in 10.0 mi South 6.9 mph - N/A   Overcast
1:35 PM 78.8 °F - 66.2 °F 65% 29.93 in 10.0 mi SSE 5.8 mph - N/A   Overcast
2:15 PM 82.4 °F 84.6 °F 66.2 °F 58% 29.91 in 10.0 mi SSE 6.9 mph - N/A   Overcast
2:35 PM 82.4 °F 84.6 °F 66.2 °F 58% 29.90 in 10.0 mi SE 4.6 mph - N/A   Overcast
2:55 PM 82.4 °F 84.6 °F 66.2 °F 58% 29.89 in 10.0 mi SSW 4.6 mph - N/A   Overcast
5:41 PM 82.4 °F 83.4 °F 62.6 °F 51% 29.89 in 10.0 mi ESE 5.8 mph - N/A   Mostly Cloudy
6:58 PM 78.8 °F - 69.8 °F 74% 29.90 in 10.0 mi East 10.4 mph - N/A   Mostly Cloudy
8:15 PM 75.2 °F - 69.8 °F 83% 29.94 in 10.0 mi East 8.1 mph - N/A   Scattered Clouds
8:35 PM 73.4 °F - 69.8 °F 88% 29.95 in 10.0 mi East 5.8 mph - N/A   Scattered Clouds
8:55 PM 73.4 °F - 68.0 °F 83% 29.96 in 10.0 mi East 4.6 mph - N/A   Scattered Clouds
10:35 PM 71.6 °F - 68.0 °F 88% 29.98 in 7.0 mi East 4.6 mph - N/A   Overcast
10:57 PM 71.6 °F - 68.0 °F 88% 29.97 in 7.0 mi East 4.6 mph - N/A   Mostly Cloudy
11:17 PM 71.6 °F - 66.2 °F 83% 29.97 in 5.0 mi East 3.5 mph - N/A   Mostly Cloudy